Wind_Speed
16 17 15 14 12 10 9 8 7 7 6 6 6 7 8 9 10 11 12 12 12 11 10 9 8 6 6 6 5 5 5 5 5 5 6 6 5 3 2 2 1 2 3
16 16 15 12 10 8 6 6 6 5 3 2 3 4 4 5 6 7 9 10 10 9 8 7 5 4 3 3 3 3 3 3 3 3 4 4 4 4 4 2 1 3 4
13 11 11 10 7 6 4 4 3 2 0 1 1 3 4 5 4 4 5 7 7 7 7 5 3 2 1 1 1 1 1 2 2 2 3 3 4 5 4 3 2 3 4
9 8 7 7 6 4 2 1 1 2 3 3 4 5 6 7 5 3 3 5 6 6 6 5 4 3 1 1 1 2 2 1 1 1 1 2 3 5 5 4 3 2 2
6 5 5 5 4 3 2 2 2 4 6 6 6 7 8 8 8 7 6 7 7 7 6 5 5 4 3 3 4 4 4 3 3 2 1 1 2 4 5 5 4 4 2
5 5 5 5 4 4 5 5 4 6 9 9 7 7 7 6 6 6 7 10 10 9 7 6 6 6 6 5 5 6 7 6 5 4 3 2 1 1 2 2 2 2 2
5 5 6 6 5 6 7 7 8 10 11 11 10 7 6 6 6 6 8 12 12 10 9 7 7 7 8 8 7 7 8 9 8 6 5 4 4 3 2 1 0 1 2
7 8 8 7 7 8 9 10 11 13 15 14 12 9 6 7 8 8 9 10 10 9 10 10 9 8 8 10 10 8 8 10 11 9 7 6 6 6 5 3 2 2 3
7 8 9 10 10 11 12 14 14 15 15 14 13 10 9 9 10 10 9 9 8 9 10 10 10 9 8 9 10 9 8 10 11 12 10 9 9 10 8 7 6 5 5
7 8 8 9 11 12 13 14 15 16 15 14 13 13 13 13 13 12 11 10 9 10 10 10 9 9 9 9 10 10 8 10 11 12 13 12 11 12 11 11 10 9 7
8 8 8 9 10 11 13 15 16 16 16 15 15 15 15 17 17 18 18 16 14 13 12 10 9 8 8 9 11 11 9 8 10 12 13 14 14 13 13 14 14 12 11
10 10 10 11 11 12 13 14 15 16 17 17 18 19 19 20 21 22 23 23 20 17 15 12 10 9 8 9 10 11 10 8 8 11 13 15 17 16 15 16 17 16 14
12 13 14 14 14 14 15 15 16 17 19 18 19 19 20 20 21 22 24 25 23 21 19 17 14 12 10 9 9 9 9 10 10 9 11 15 17 18 18 18 18 18 17
16 17 18 18 18 19 20 21 21 21 21 20 19 19 20 20 21 23 24 25 25 24 22 21 19 16 13 12 10 9 9 10 11 12 12 13 17 19 20 20 20 20 20
21 22 22 22 23 24 25 26 26 26 27 27 26 24 23 23 23 25 26 26 26 25 25 24 23 20 18 17 15 11 10 11 11 13 15 15 16 19 22 23 23 22 22
29 29 29 30 29 30 31 32 32 32 33 33 33 32 29 27 26 27 28 28 28 27 27 26 26 24 22 21 19 17 15 14 14 15 17 17 18 20 22 25 26 25 25
35 35 36 36 36 36 37 38 37 37 38 38 37 37 36 33 31 30 30 30 30 30 29 29 29 28 27 25 23 22 21 20 19 19 19 20 20 21 23 24 26 28 28
39 39 40 41 42 43 43 43 44 43 42 42 41 42 42 40 38 35 33 33 33 33 33 33 33 31 30 29 27 26 25 24 24 23 23 23 23 23 24 25 26 27 29
44 44 45 45 45 47 47 48 49 50 48 47 46 47 47 46 43 40 38 38 37 36 36 37 36 34 33 33 31 30 30 28 27 27 27 27 27 26 26 26 27 27 28
49 49 49 48 48 49 50 51 53 55 55 54 53 54 54 52 50 48 45 44 44 41 39 38 38 37 36 35 35 34 33 31 30 30 29 29 29 28 27 27 27 27 28
47 47 46 47 48 49 51 53 55 58 61 61 61 60 59 59 59 58 54 50 49 48 44 41 40 39 37 36 37 37 35 33 31 31 31 30 30 29 27 27 27 28 29
43 44 45 46 48 50 51 53 56 59 62 63 63 62 60 60 61 60 59 55 54 53 49 46 42 40 38 38 38 38 35 34 34 32 32 32 32 31 29 28 28 29 31
43 44 45 46 47 48 49 50 52 53 56 62 65 63 59 56 55 53 51 52 55 55 53 50 47 43 42 41 41 41 39 35 33 32 33 34 33 32 31 31 30 31 33
42 42 43 45 46 47 48 49 51 51 49 50 54 55 53 52 51 47 43 46 51 52 53 53 51 48 47 46 45 46 45 40 34 30 31 34 34 31 30 32 33 34 35
38 38 39 40 41 43 44 46 48 49 49 50 50 50 51 49 46 44 39 40 47 50 51 53 52 51 51 50 48 46 43 40 35 30 28 29 32 31 30 32 34 36 36
33 34 36 37 38 41 43 45 47 49 50 49 48 46 46 44 41 39 36 36 43 48 49 49 49 49 48 47 44 41 40 37 32 28 26 27 29 31 31 32 35 36 36
Wind_Direction
129 130 131 134 134 131 130 129 129 129 126 113 96 87 78 75 77 81 81 78 77 79 81 78 73 67 64 64 63 58 53 46 45 55 60 56 50 51 44 34 170 151 106
130 135 136 139 140 140 143 145 146 145 140 118 83 58 43 47 59 69 73 74 72 71 74 78 81 79 70 62 61 65 64 59 59 65 63 56 42 26 9 0 302 226 217
137 140 140 142 147 154 167 172 163 157 218 298 355 3 3 19 38 49 55 61 61 60 57 57 59 74 90 73 29 12 46 60 63 66 71 65 48 37 29 16 332 274 255
145 151 154 156 163 172 189 218 216 342 335 329 331 344 350 355 1 11 30 31 36 39 35 30 20 1 315 274 282 285 291 302 318 44 49 57 60 67 68 60 44 11 286
151 163 175 175 183 207 261 289 320 347 350 339 333 337 342 348 352 351 3 20 21 19 15 12 5 352 331 288 265 266 274 282 284 288 339 7 45 91 85 75 68 54 41
163 189 201 204 220 250 274 286 306 333 340 336 328 329 332 344 1 0 359 358 354 353 354 359 5 2 347 321 287 269 265 272 283 288 290 297 318 91 108 93 74 50 27
197 223 236 238 251 270 285 293 301 317 327 331 322 314 318 330 344 343 337 341 343 344 345 344 349 359 1 344 316 289 270 267 277 285 284 270 269 272 237 204 232 317 281
232 237 247 254 264 275 288 295 296 303 311 318 316 298 294 305 312 318 319 330 338 342 340 334 334 340 349 351 337 307 281 269 270 277 281 270 259 261 258 251 265 293 290
271 266 261 265 270 276 285 290 292 296 303 308 306 287 277 287 298 305 308 311 323 330 331 330 332 337 345 352 348 326 291 271 268 271 275 273 266 263 260 265 274 285 302
282 280 274 274 277 282 288 291 293 293 293 295 292 282 275 280 290 296 298 290 291 303 310 317 328 338 341 345 352 345 308 276 266 267 271 273 271 269 264 264 272 281 291
281 280 280 282 282 285 288 291 292 290 286 284 279 275 275 279 283 288 291 287 279 278 285 295 313 327 334 339 350 355 340 294 269 264 265 268 270 269 266 267 270 278 286
276 278 279 280 279 280 284 287 289 289 286 283 280 278 278 279 280 282 284 283 277 269 270 275 289 304 320 332 340 350 355 340 297 269 264 265 268 268 269 272 273 274 279
282 283 280 277 273 273 278 282 283 282 281 280 281 285 288 288 287 285 282 279 272 265 265 266 269 280 294 312 327 339 343 344 333 302 274 265 264 264 268 273 276 276 277
277 279 277 274 270 269 275 281 281 279 278 279 283 287 290 292 293 292 289 280 271 264 263 263 260 267 277 288 299 317 327 328 324 319 304 279 267 263 263 268 273 276 277
273 273 274 272 271 272 275 279 279 276 276 278 284 285 283 285 286 288 289 284 276 268 264 262 258 261 270 278 283 294 309 313 312 310 311 302 282 269 264 263 268 271 273
277 277 278 275 270 271 274 276 275 274 274 277 281 281 279 277 278 282 284 284 280 273 268 265 260 261 267 274 280 288 298 303 303 303 304 303 296 281 270 265 265 267 269
279 281 280 278 274 271 271 271 270 270 271 274 277 279 277 274 270 272 277 280 278 275 271 267 262 261 266 270 274 282 290 295 298 298 297 295 294 290 280 272 269 267 266
277 278 278 278 278 277 275 273 270 267 267 268 270 272 273 271 268 266 269 274 275 272 269 265 261 261 264 266 271 277 283 287 292 294 292 289 287 285 282 277 274 269 265
272 272 272 273 272 273 274 275 274 269 264 262 262 264 266 266 265 264 265 268 270 269 265 262 260 259 261 266 271 276 279 284 290 290 289 286 284 282 280 276 273 269 264
272 273 275 275 273 271 270 270 269 269 265 261 260 261 263 263 264 263 263 264 265 265 262 260 259 258 260 266 271 275 279 284 288 287 284 283 283 281 279 275 272 268 264
274 275 275 275 273 273 273 271 268 267 268 266 264 263 264 266 267 266 264 261 260 261 260 260 259 258 260 264 269 274 279 284 286 285 283 282 280 278 276 272 268 267 265
272 273 273 274 273 274 277 277 274 271 268 268 269 269 269 270 272 270 264 259 256 257 257 258 259 258 259 263 268 274 278 282 285 285 285 283 280 277 274 268 263 262 263
272 272 271 272 273 274 277 279 280 282 279 271 269 269 272 275 279 277 268 258 253 253 254 257 257 257 259 262 268 274 279 280 280 283 283 282 280 276 272 269 263 260 262
272 273 272 273 274 275 275 276 277 279 280 277 274 274 276 281 282 279 269 254 249 250 254 255 256 255 257 260 266 272 277 278 277 275 277 278 279 276 272 269 267 264 262
276 276 276 277 277 277 277 276 275 275 274 272 273 276 280 280 280 278 270 256 248 248 252 254 254 255 255 258 262 268 272 274 274 271 269 272 276 278 274 269 267 266 264
281 283 283 282 281 280 280 279 277 276 274 274 275 278 280 278 274 272 266 257 249 249 252 253 253 253 254 257 260 263 267 270 269 266 265 268 273 275 275 271 269 268 268
Height
5932 5932 5932 5932 5931 5931 5931 5930 5930 5929 5928 5927 5926 5925 5924 5923 5922 5921 5919 5918 5917 5916 5914 5913 5912 5911 5910 5908 5907 5906 5906 5905 5904 5902 5901 5901 5901 5900 5900 5899 5898 5898 5898
5934 5933 5932 5932 5932 5932 5932 5931 5931 5930 5930 5929 5928 5926 5925 5923 5923 5922 5920 5919 5918 5917 5915 5913 5912 5911 5910 5909 5908 5907 5906 5905 5904 5903 5903 5902 5901 5901 5901 5900 5900 5899 5899
5935 5935 5934 5933 5933 5933 5932 5932 5932 5932 5931 5931 5930 5928 5926 5925 5923 5923 5922 5920 5919 5917 5916 5915 5913 5912 5911 5910 5909 5907 5906 5906 5905 5904 5903 5902 5901 5901 5900 5900 5900 5900 5899
5937 5936 5936 5935 5934 5934 5934 5934 5934 5933 5933 5932 5931 5930 5928 5927 5925 5923 5922 5921 5920 5918 5916 5915 5914 5913 5911 5911 5909 5908 5907 5906 5905 5905 5904 5903 5902 5901 5900 5900 5900 5899 5899
5937 5937 5937 5936 5936 5936 5935 5935 5935 5935 5934 5933 5932 5930 5929 5927 5926 5925 5924 5922 5921 5919 5917 5915 5914 5912 5911 5910 5909 5908 5907 5906 5905 5905 5904 5903 5902 5901 5900 5900 5899 5899 5899
5937 5937 5937 5937 5937 5937 5936 5936 5936 5935 5934 5933 5932 5931 5929 5928 5927 5926 5926 5924 5922 5920 5918 5916 5914 5913 5911 5909 5908 5907 5906 5906 5905 5904 5904 5903 5903 5902 5901 5900 5899 5899 5898
5937 5937 5937 5936 5937 5937 5937 5936 5936 5936 5935 5934 5932 5931 5929 5928 5927 5926 5926 5925 5923 5921 5919 5917 5915 5913 5912 5909 5907 5905 5905 5904 5904 5903 5903 5903 5902 5902 5901 5900 5899 5899 5898
5936 5936 5936 5936 5935 5935 5936 5936 5935 5935 5934 5933 5931 5930 5929 5928 5927 5925 5925 5924 5922 5921 5919 5917 5915 5913 5911 5909 5906 5904 5903 5902 5902 5902 5902 5901 5901 5900 5900 5899 5898 5897 5897
5935 5934 5934 5934 5933 5933 5933 5933 5932 5932 5931 5930 5929 5928 5928 5927 5925 5924 5924 5922 5921 5920 5919 5917 5915 5912 5910 5909 5906 5903 5901 5900 5900 5900 5901 5900 5899 5899 5898 5897 5896 5896 5895
5932 5931 5931 5931 5930 5930 5930 5930 5929 5928 5927 5927 5926 5926 5925 5924 5923 5922 5921 5920 5919 5918 5917 5915 5914 5912 5910 5908 5905 5902 5900 5898 5898 5898 5898 5899 5898 5897 5896 5895 5894 5894 5893
5929 5928 5928 5928 5927 5927 5927 5926 5925 5924 5924 5923 5922 5921 5921 5920 5920 5919 5918 5917 5917 5916 5915 5913 5912 5911 5908 5906 5904 5901 5898 5896 5895 5895 5895 5896 5896 5895 5895 5894 5892 5891 5890
5925 5925 5925 5925 5924 5923 5923 5922 5922 5921 5920 5919 5918 5917 5916 5915 5915 5914 5914 5913 5913 5912 5912 5911 5910 5908 5906 5905 5903 5900 5897 5895 5893 5892 5892 5892 5892 5892 5892 5892 5891 5889 5888
5922 5921 5921 5920 5920 5919 5918 5917 5916 5916 5915 5914 5913 5912 5911 5910 5909 5908 5908 5908 5907 5908 5908 5907 5906 5905 5904 5903 5900 5898 5895 5893 5891 5889 5889 5888 5888 5888 5888 5888 5888 5887 5886
5918 5917 5916 5915 5914 5913 5912 5912 5911 5910 5909 5909 5908 5907 5907 5906 5905 5904 5903 5902 5902 5902 5903 5902 5902 5901 5900 5899 5898 5895 5893 5891 5888 5887 5886 5885 5884 5883 5883 5883 5883 5883 5882
5913 5912 5911 5910 5910 5909 5907 5906 5906 5905 5904 5904 5903 5903 5903 5902 5901 5900 5900 5898 5897 5897 5898 5898 5897 5896 5896 5895 5894 5892 5890 5888 5886 5883 5882 5881 5880 5879 5878 5878 5877 5877 5877
5909 5908 5907 5906 5904 5903 5902 5901 5900 5900 5899 5899 5898 5897 5897 5896 5896 5895 5894 5893 5893 5892 5892 5892 5892 5891 5891 5890 5889 5888 5886 5884 5882 5880 5878 5877 5875 5874 5874 5873 5872 5872 5872
5904 5902 5901 5899 5898 5896 5895 5894 5893 5893 5893 5892 5891 5889 5889 5888 5888 5887 5887 5887 5887 5887 5886 5886 5886 5886 5886 5885 5884 5883 5881 5879 5878 5876 5875 5873 5871 5869 5868 5868 5868 5867 5866
5896 5895 5894 5892 5891 5890 5889 5887 5886 5885 5884 5883 5882 5881 5880 5879 5878 5878 5878 5879 5879 5880 5880 5879 5880 5880 5880 5879 5878 5877 5876 5875 5873 5872 5870 5868 5866 5864 5862 5862 5861 5861 5861
5888 5887 5886 5885 5884 5883 5882 5881 5879 5878 5875 5874 5872 5871 5870 5869 5868 5868 5869 5869 5869 5871 5871 5871 5872 5873 5873 5872 5872 5871 5870 5869 5868 5866 5865 5862 5860 5858 5856 5855 5854 5855 5855
5879 5878 5878 5877 5876 5875 5874 5873 5872 5870 5866 5863 5862 5861 5860 5859 5859 5858 5858 5859 5859 5860 5861 5862 5864 5864 5865 5865 5865 5864 5863 5862 5860 5859 5857 5855 5853 5851 5849 5848 5848 5847 5848
5870 5869 5867 5866 5865 5863 5862 5861 5860 5859 5857 5855 5853 5851 5851 5850 5850 5848 5848 5847 5848 5849 5850 5852 5854 5856 5856 5856 5856 5856 5855 5854 5852 5850 5849 5847 5846 5844 5842 5841 5841 5841 5841
5861 5860 5858 5857 5855 5854 5852 5850 5849 5847 5845 5844 5843 5842 5841 5840 5838 5836 5835 5835 5835 5836 5839 5841 5844 5846 5847 5847 5847 5848 5849 5847 5844 5843 5841 5839 5838 5836 5835 5834 5833 5833 5833
5852 5850 5849 5847 5845 5843 5841 5839 5836 5833 5832 5833 5833 5831 5830 5828 5825 5822 5820 5820 5822 5825 5828 5830 5833 5836 5838 5838 5838 5839 5840 5840 5837 5836 5833 5831 5830 5829 5828 5827 5826 5825 5825
5842 5839 5837 5835 5833 5831 5829 5827 5824 5822 5821 5820 5818 5818 5816 5815 5812 5809 5806 5806 5809 5814 5817 5820 5822 5825 5828 5829 5830 5829 5830 5829 5829 5828 5826 5823 5821 5820 5819 5818 5818 5817 5817
5830 5828 5826 5824 5821 5819 5816 5814 5811 5810 5809 5807 5805 5803 5802 5801 5799 5798 5796 5796 5799 5803 5806 5809 5812 5814 5817 5820 5822 5822 5821 5820 5819 5819 5818 5816 5813 5811 5810 5809 5808 5807 5807
5819 5817 5815 5812 5810 5807 5804 5801 5799 5797 5795 5793 5790 5788 5787 5787 5787 5787 5787 5789 5791 5794 5797 5800 5802 5805 5807 5810 5812 5813 5813 5812 5810 5809 5809 5808 5806 5803 5802 5801 5800 5799 5799